FDB445 OMDB-VABB

Flight info

Callsign FDB445
Flight time 2h 35m
Altitude 37000
Route IVURO DCT LALDO B505 NADSO A777 VAXIM L301 KARKU DCT EXOLU POKON2A
Aircraft B38M/M-SDE1FGHILORVWXY/HB1

Departure

Time 2026-04-30 19:51
Airport Dubai International Airport (OMDB)

Arrival

Time 2026-04-30 22:26
Airport Chhatrapati Shivaji Maharaj International Airport (VABB)
Time Latitude Longitude Altitude Speed Heading
2026-04-30 19:02 25.26632 55.34385 22 ft 0 kts 31°
2026-04-30 19:32 25.26623 55.34379 22 ft 4 kts 31°
2026-04-30 19:33 25.26601 55.34364 26 ft 3 kts 31°
2026-04-30 19:33 25.26583 55.34352 24 ft 3 kts 32°
2026-04-30 19:33 25.26571 55.34337 23 ft 4 kts 101°
2026-04-30 19:33 25.26581 55.34313 24 ft 4 kts 121°
2026-04-30 19:34 25.26593 55.34292 26 ft 0 kts 121°
2026-04-30 19:39 25.26592 55.34293 24 ft 1 kts 121°
2026-04-30 19:39 25.26584 55.34307 23 ft 3 kts 121°
2026-04-30 19:39 25.26570 55.34333 23 ft 5 kts 121°
2026-04-30 19:40 25.26549 55.34372 24 ft 7 kts 121°
2026-04-30 19:40 25.26521 55.34421 22 ft 8 kts 121°
2026-04-30 19:40 25.26492 55.34473 22 ft 8 kts 121°
2026-04-30 19:40 25.26463 55.34528 22 ft 9 kts 109°
2026-04-30 19:41 25.26464 55.34560 22 ft 2 kts 75°
2026-04-30 19:41 25.26465 55.34564 22 ft 0 kts 70°
2026-04-30 19:41 25.26470 55.34567 22 ft 2 kts 29°
2026-04-30 19:41 25.26514 55.34580 22 ft 10 kts 13°
2026-04-30 19:42 25.26531 55.34585 22 ft 1 kts 14°
2026-04-30 19:42 25.26532 55.34586 22 ft 0 kts 35°
2026-04-30 19:42 25.26532 55.34590 22 ft 0 kts 85°
2026-04-30 19:42 25.26486 55.34658 24 ft 17 kts 130°
2026-04-30 19:43 25.26411 55.34779 23 ft 20 kts 121°
2026-04-30 19:43 25.26335 55.34914 25 ft 21 kts 122°
2026-04-30 19:43 25.26257 55.35055 23 ft 22 kts 121°
2026-04-30 19:44 25.26085 55.35365 25 ft 25 kts 121°
2026-04-30 19:44 25.25994 55.35531 27 ft 26 kts 121°
2026-04-30 19:44 25.25898 55.35702 24 ft 27 kts 122°
2026-04-30 19:44 25.25799 55.35878 24 ft 27 kts 121°
2026-04-30 19:45 25.25734 55.35996 25 ft 27 kts 121°
2026-04-30 19:45 25.25634 55.36178 27 ft 28 kts 120°
2026-04-30 19:45 25.25533 55.36361 25 ft 22 kts 122°
2026-04-30 19:45 25.25451 55.36509 26 ft 23 kts 121°
2026-04-30 19:46 25.25364 55.36666 26 ft 25 kts 121°
2026-04-30 19:46 25.25271 55.36833 25 ft 26 kts 121°
2026-04-30 19:46 25.25176 55.37005 27 ft 27 kts 122°
2026-04-30 19:46 25.25114 55.37117 27 ft 15 kts 121°
2026-04-30 19:47 25.25057 55.37220 28 ft 16 kts 122°
2026-04-30 19:47 25.24999 55.37323 30 ft 16 kts 122°
2026-04-30 19:47 25.24941 55.37427 33 ft 16 kts 121°
2026-04-30 19:47 25.24883 55.37533 35 ft 16 kts 121°
2026-04-30 19:48 25.24825 55.37638 38 ft 16 kts 122°
2026-04-30 19:48 25.24767 55.37742 40 ft 16 kts 122°
2026-04-30 19:48 25.24719 55.37839 42 ft 12 kts 92°
2026-04-30 19:48 25.24764 55.37900 43 ft 10 kts 25°
2026-04-30 19:49 25.24826 55.37942 43 ft 11 kts 30°
2026-04-30 19:49 25.24891 55.37886 41 ft 1 kts 301°
2026-04-30 19:49 25.24897 55.37874 41 ft 6 kts 301°
2026-04-30 19:50 25.24996 55.37695 37 ft 62 kts 301°
2026-04-30 19:50 25.25346 55.37068 28 ft 129 kts 302°
2026-04-30 19:50 25.25922 55.36036 44 ft 179 kts 301°
2026-04-30 19:50 25.26611 55.34814 469 ft 195 kts 300°
2026-04-30 19:51 25.27307 55.33500 1192 ft 199 kts 301°
2026-04-30 19:51 25.28037 55.32165 1969 ft 209 kts 302°
2026-04-30 19:51 25.28846 55.30775 2683 ft 220 kts 310°
2026-04-30 19:51 25.30090 55.29765 3259 ft 229 kts 338°
2026-04-30 19:52 25.31670 55.29522 3419 ft 232 kts
2026-04-30 19:52 25.33293 55.29567 3574 ft 233 kts 359°
2026-04-30 19:52 25.34921 55.29604 3702 ft 234 kts 359°
2026-04-30 19:52 25.36533 55.29641 3833 ft 235 kts 359°
2026-04-30 19:53 25.38168 55.29681 4414 ft 235 kts
2026-04-30 19:53 25.39788 55.30187 5101 ft 253 kts 28°
2026-04-30 19:53 25.41108 55.31540 5882 ft 265 kts 49°
2026-04-30 19:53 25.42290 55.33143 6690 ft 272 kts 48°
2026-04-30 19:54 25.43529 55.34817 7292 ft 290 kts 48°
2026-04-30 19:54 25.44837 55.36595 7920 ft 302 kts 48°
2026-04-30 19:54 25.46171 55.38414 8832 ft 306 kts 48°
2026-04-30 19:54 25.47513 55.40245 9645 ft 312 kts 48°
2026-04-30 19:55 25.48877 55.42148 10385 ft 321 kts 50°
2026-04-30 19:55 25.50282 55.44155 10801 ft 340 kts 50°
2026-04-30 19:55 25.51673 55.46378 11168 ft 361 kts 63°
2026-04-30 19:55 25.52390 55.49071 11744 ft 372 kts 85°
2026-04-30 19:56 25.52179 55.51922 12447 ft 373 kts 108°
2026-04-30 19:56 25.51094 55.54514 13121 ft 374 kts 126°
2026-04-30 19:56 25.49681 55.56963 13794 ft 378 kts 125°
2026-04-30 19:56 25.48276 55.59432 14436 ft 382 kts 125°
2026-04-30 19:57 25.46869 55.61902 15071 ft 385 kts 125°
2026-04-30 19:57 25.45434 55.64420 15709 ft 388 kts 125°
2026-04-30 19:57 25.43987 55.66958 16327 ft 392 kts 125°
2026-04-30 19:57 25.42715 55.69654 16918 ft 398 kts 110°
2026-04-30 19:58 25.42001 55.72629 17530 ft 402 kts 106°
2026-04-30 19:58 25.41323 55.75647 18084 ft 406 kts 105°
2026-04-30 19:58 25.40656 55.78694 18607 ft 409 kts 105°
2026-04-30 19:58 25.39992 55.81778 19086 ft 412 kts 105°
2026-04-30 19:59 25.39329 55.84875 19558 ft 416 kts 105°
2026-04-30 19:59 25.38660 55.88004 20035 ft 419 kts 105°
2026-04-30 19:59 25.37316 55.94287 20968 ft 426 kts 105°
2026-04-30 20:00 25.36630 55.97489 21435 ft 429 kts 105°
2026-04-30 20:00 25.35937 56.00721 21904 ft 432 kts 105°
2026-04-30 20:00 25.35241 56.03965 22360 ft 436 kts 105°
2026-04-30 20:00 25.34539 56.07235 22814 ft 439 kts 105°
2026-04-30 20:01 25.33111 56.13869 23616 ft 446 kts 105°
2026-04-30 20:01 25.32664 56.17275 23966 ft 451 kts 94°
2026-04-30 20:01 25.32479 56.20755 24339 ft 454 kts 95°
2026-04-30 20:02 25.32068 56.27782 25062 ft 460 kts 95°
2026-04-30 20:02 25.31862 56.31325 25401 ft 464 kts 96°
2026-04-30 20:03 25.31443 56.38500 26075 ft 470 kts 95°
2026-04-30 20:03 25.31233 56.42065 26394 ft 473 kts 95°
2026-04-30 20:03 25.31018 56.45710 26706 ft 476 kts 96°
2026-04-30 20:03 25.30801 56.49371 27028 ft 479 kts 96°
2026-04-30 20:04 25.30581 56.53062 27333 ft 482 kts 96°
2026-04-30 20:04 25.30360 56.56767 27648 ft 485 kts 96°
2026-04-30 20:04 25.29806 56.60433 27921 ft 481 kts 111°
2026-04-30 20:05 25.27370 56.67296 28451 ft 484 kts 116°
2026-04-30 20:05 25.26091 56.70745 28774 ft 486 kts 117°
2026-04-30 20:05 25.23476 56.77672 29336 ft 490 kts 117°
2026-04-30 20:06 25.22159 56.81142 29613 ft 493 kts 117°
2026-04-30 20:06 25.20826 56.84652 29879 ft 495 kts 117°
2026-04-30 20:06 25.19488 56.88170 30101 ft 497 kts 117°
2026-04-30 20:06 25.18145 56.91700 30341 ft 499 kts 117°
2026-04-30 20:07 25.16798 56.95240 30579 ft 500 kts 117°
2026-04-30 20:07 25.15445 56.98788 30822 ft 502 kts 117°
2026-04-30 20:07 25.12746 57.05860 31265 ft 505 kts 117°
2026-04-30 20:08 25.11380 57.09435 31501 ft 506 kts 117°
2026-04-30 20:08 25.10004 57.13034 31715 ft 508 kts 117°
2026-04-30 20:08 25.08627 57.16632 31936 ft 509 kts 117°
2026-04-30 20:08 25.07248 57.20232 32158 ft 510 kts 117°
2026-04-30 20:09 25.05878 57.23806 32367 ft 512 kts 117°
2026-04-30 20:09 25.04489 57.27423 32605 ft 512 kts 117°
2026-04-30 20:09 25.01709 57.34660 33194 ft 511 kts 117°
2026-04-30 20:10 24.98935 57.41866 33800 ft 509 kts 117°
2026-04-30 20:10 24.97553 57.45454 34071 ft 508 kts 117°
2026-04-30 20:10 24.96171 57.49034 34327 ft 507 kts 117°
2026-04-30 20:11 24.93418 57.56165 34833 ft 505 kts 117°
2026-04-30 20:11 24.92042 57.59723 35073 ft 504 kts 117°
2026-04-30 20:11 24.90670 57.63266 35313 ft 503 kts 117°
2026-04-30 20:12 24.87948 57.70293 35825 ft 500 kts 117°
2026-04-30 20:12 24.86579 57.73823 36056 ft 499 kts 117°
2026-04-30 20:12 24.85213 57.77342 36286 ft 498 kts 117°
2026-04-30 20:13 24.83848 57.80853 36506 ft 497 kts 118°
2026-04-30 20:13 24.82383 57.84241 36715 ft 495 kts 120°
2026-04-30 20:13 24.80880 57.87656 36815 ft 496 kts 120°
2026-04-30 20:14 24.77901 57.94491 36783 ft 493 kts 120°
2026-04-30 20:14 24.74930 58.01306 36787 ft 493 kts 120°
2026-04-30 20:15 24.71959 58.08111 36794 ft 493 kts 120°
2026-04-30 20:15 24.68983 58.14919 36788 ft 493 kts 120°
2026-04-30 20:16 24.66027 58.21669 36790 ft 493 kts 120°
2026-04-30 20:16 24.63042 58.28475 36793 ft 493 kts 120°
2026-04-30 20:17 24.60058 58.35271 36798 ft 493 kts 120°
2026-04-30 20:17 24.57090 58.42017 36794 ft 493 kts 120°
2026-04-30 20:18 24.54098 58.48810 36793 ft 493 kts 120°
2026-04-30 20:18 24.51121 58.55558 36792 ft 493 kts 120°
2026-04-30 20:19 24.48126 58.62337 36786 ft 492 kts 120°
2026-04-30 20:19 24.45150 58.69063 36792 ft 492 kts 119°
2026-04-30 20:20 24.42155 58.75821 36783 ft 492 kts 120°
2026-04-30 20:20 24.39151 58.82582 36781 ft 492 kts 120°
2026-04-30 20:21 24.36147 58.89335 36782 ft 492 kts 120°
2026-04-30 20:21 24.33158 58.96044 36788 ft 492 kts 120°
2026-04-30 20:22 24.30147 59.02792 36783 ft 492 kts 120°
2026-04-30 20:22 24.27135 59.09533 36782 ft 492 kts 120°
2026-04-30 20:23 24.24127 59.16255 36781 ft 491 kts 120°
2026-04-30 20:23 24.21125 59.22952 36787 ft 491 kts 120°
2026-04-30 20:24 24.18101 59.29690 36783 ft 491 kts 120°
2026-04-30 20:24 24.15098 59.36372 36788 ft 491 kts 120°
2026-04-30 20:25 24.10560 59.46452 36784 ft 491 kts 120°
2026-04-30 20:26 24.06017 59.56519 36785 ft 491 kts 120°
2026-04-30 20:26 24.01493 59.66525 36781 ft 490 kts 120°
2026-04-30 20:27 23.95434 59.79893 36784 ft 490 kts 120°
2026-04-30 20:28 23.89389 59.93191 36782 ft 489 kts 120°
2026-04-30 20:30 23.81809 60.09814 36783 ft 488 kts 120°
2026-04-30 20:31 23.73204 60.28614 36785 ft 488 kts 120°
2026-04-30 20:32 23.65600 60.45162 36785 ft 488 kts 120°
2026-04-30 20:33 23.61038 60.55066 36783 ft 488 kts 120°
2026-04-30 20:34 23.56454 60.64996 36782 ft 488 kts 120°
2026-04-30 20:35 23.51883 60.74876 36781 ft 488 kts 120°
2026-04-30 20:35 23.47290 60.84784 36782 ft 487 kts 120°
2026-04-30 20:36 23.44232 60.91369 36781 ft 487 kts 120°
2026-04-30 20:37 23.39633 61.01255 36779 ft 487 kts 120°
2026-04-30 20:37 23.36590 61.07789 36784 ft 487 kts 120°
2026-04-30 20:38 23.33523 61.14364 36779 ft 487 kts 120°
2026-04-30 20:38 23.32156 61.17739 36764 ft 490 kts 108°
2026-04-30 20:38 23.31526 61.21384 36787 ft 492 kts 98°
2026-04-30 20:39 23.30422 61.32539 36779 ft 495 kts 97°
2026-04-30 20:40 23.29427 61.43661 36776 ft 495 kts 97°
2026-04-30 20:40 23.28758 61.51141 36775 ft 495 kts 97°
2026-04-30 20:41 23.27755 61.62271 36772 ft 495 kts 97°
2026-04-30 20:41 23.27079 61.69723 36772 ft 495 kts 97°
2026-04-30 20:42 23.26405 61.77120 36770 ft 494 kts 97°
2026-04-30 20:43 23.25380 61.88290 36769 ft 494 kts 97°
2026-04-30 20:43 23.24693 61.95725 36768 ft 494 kts 97°
2026-04-30 20:44 23.23660 62.06837 36761 ft 494 kts 97°
2026-04-30 20:45 23.22266 62.21701 36756 ft 494 kts 97°
2026-04-30 20:45 23.21562 62.29146 36759 ft 494 kts 97°
2026-04-30 20:46 23.20152 62.43954 36756 ft 494 kts 97°
2026-04-30 20:47 23.19078 62.55124 36751 ft 494 kts 97°
2026-04-30 20:48 23.18004 62.66225 36755 ft 493 kts 98°
2026-04-30 20:48 23.17281 62.73640 36754 ft 493 kts 98°
2026-04-30 20:49 23.16560 62.81011 36754 ft 493 kts 98°
2026-04-30 20:50 23.15462 62.92161 36745 ft 493 kts 98°
2026-04-30 20:50 23.14728 62.99575 36749 ft 493 kts 98°
2026-04-30 20:51 23.13994 63.06939 36748 ft 493 kts 98°
2026-04-30 20:51 23.12880 63.18062 36745 ft 493 kts 98°
2026-04-30 20:52 23.12134 63.25471 36745 ft 493 kts 98°
2026-04-30 20:53 23.11012 63.36547 36745 ft 493 kts 98°
2026-04-30 20:53 23.10257 63.43951 36742 ft 493 kts 98°
2026-04-30 20:54 23.09117 63.55069 36744 ft 493 kts 98°
2026-04-30 20:55 23.07973 63.66158 36742 ft 492 kts 98°
2026-04-30 20:55 23.07209 63.73526 36745 ft 492 kts 98°
2026-04-30 20:56 23.06051 63.84573 36744 ft 492 kts 100°
2026-04-30 20:56 23.03927 63.91550 36742 ft 487 kts 114°
2026-04-30 20:57 23.02683 63.94973 36739 ft 488 kts 114°
2026-04-30 20:57 23.00133 64.01815 36747 ft 488 kts 114°
2026-04-30 20:58 22.96291 64.12002 36743 ft 487 kts 115°
2026-04-30 20:58 22.93715 64.18816 36740 ft 487 kts 114°
2026-04-30 20:59 22.89844 64.29038 36739 ft 487 kts 115°
2026-04-30 21:00 22.84696 64.42594 36747 ft 487 kts 115°
2026-04-30 21:01 22.80832 64.52743 36742 ft 487 kts 115°
2026-04-30 21:02 22.76948 64.62925 36746 ft 487 kts 115°
2026-04-30 21:02 22.74356 64.69704 36749 ft 487 kts 115°
2026-04-30 21:03 22.71758 64.76490 36743 ft 486 kts 115°
2026-04-30 21:03 22.69181 64.83213 36739 ft 486 kts 115°
2026-04-30 21:04 22.66582 64.89981 36750 ft 486 kts 115°
2026-04-30 21:04 22.62676 65.00137 36745 ft 486 kts 115°
2026-04-30 21:05 22.60088 65.06852 36745 ft 486 kts 115°
2026-04-30 21:05 22.57477 65.13616 36749 ft 486 kts 115°
2026-04-30 21:06 22.54882 65.20331 36749 ft 486 kts 115°
2026-04-30 21:06 22.52271 65.27076 36747 ft 486 kts 115°
2026-04-30 21:07 22.49655 65.33826 36751 ft 485 kts 115°
2026-04-30 21:07 22.47037 65.40570 36747 ft 485 kts 115°
2026-04-30 21:08 22.44437 65.47258 36748 ft 485 kts 115°
2026-04-30 21:08 22.41819 65.53983 36753 ft 485 kts 115°
2026-04-30 21:09 22.39197 65.60706 36754 ft 485 kts 115°
2026-04-30 21:09 22.36573 65.67428 36752 ft 485 kts 115°
2026-04-30 21:10 22.33949 65.74140 36754 ft 485 kts 115°
2026-04-30 21:10 22.31337 65.80809 36751 ft 485 kts 115°
2026-04-30 21:11 22.28710 65.87509 36750 ft 485 kts 115°
2026-04-30 21:11 22.26079 65.94211 36750 ft 484 kts 115°
2026-04-30 21:12 22.23439 66.00923 36752 ft 485 kts 115°
2026-04-30 21:12 22.20804 66.07616 36752 ft 484 kts 115°
2026-04-30 21:13 22.18181 66.14269 36755 ft 484 kts 115°
2026-04-30 21:13 22.15541 66.20954 36752 ft 484 kts 115°
2026-04-30 21:14 22.12899 66.27637 36754 ft 484 kts 115°
2026-04-30 21:14 22.10253 66.34320 36753 ft 484 kts 115°
2026-04-30 21:15 22.07607 66.40996 36752 ft 484 kts 115°
2026-04-30 21:15 22.04969 66.47638 36754 ft 484 kts 115°
2026-04-30 21:16 22.02313 66.54312 36749 ft 484 kts 115°
2026-04-30 21:16 21.99675 66.60941 36756 ft 484 kts 115°
2026-04-30 21:17 21.97018 66.67606 36753 ft 484 kts 115°
2026-04-30 21:17 21.94352 66.74283 36752 ft 484 kts 115°
2026-04-30 21:18 21.91701 66.80915 36752 ft 484 kts 115°
2026-04-30 21:18 21.89036 66.87573 36752 ft 484 kts 115°
2026-04-30 21:19 21.86363 66.94242 36751 ft 484 kts 115°
2026-04-30 21:19 21.83704 67.00868 36754 ft 484 kts 115°
2026-04-30 21:20 21.81463 67.06442 36752 ft 484 kts 115°
2026-04-30 21:20 21.78347 67.14185 36752 ft 484 kts 115°
2026-04-30 21:21 21.76120 67.19713 36755 ft 484 kts 115°
2026-04-30 21:22 21.72093 67.29689 36755 ft 484 kts 115°
2026-04-30 21:23 21.66730 67.42944 36758 ft 484 kts 115°
2026-04-30 21:23 21.62687 67.52914 36758 ft 484 kts 115°
2026-04-30 21:24 21.59998 67.59532 36758 ft 484 kts 115°
2026-04-30 21:24 21.57302 67.66159 36762 ft 484 kts 115°
2026-04-30 21:25 21.53240 67.76128 36762 ft 484 kts 115°
2026-04-30 21:26 21.49197 67.86032 36761 ft 484 kts 115°
2026-04-30 21:27 21.45137 67.95955 36764 ft 484 kts 115°
2026-04-30 21:27 21.42424 68.02574 36760 ft 484 kts 115°
2026-04-30 21:28 21.38345 68.12512 36765 ft 484 kts 115°
2026-04-30 21:29 21.34272 68.22416 36760 ft 484 kts 115°
2026-04-30 21:30 21.27469 68.38911 36770 ft 484 kts 115°
2026-04-30 21:31 21.20691 68.55294 36773 ft 485 kts 115°
2026-04-30 21:32 21.16579 68.65208 36772 ft 485 kts 115°
2026-04-30 21:32 21.13847 68.71783 36777 ft 485 kts 115°
2026-04-30 21:33 21.09720 68.81699 36778 ft 485 kts 115°
2026-04-30 21:34 21.06971 68.88296 36775 ft 485 kts 115°
2026-04-30 21:34 21.02855 68.98160 36773 ft 485 kts 115°
2026-04-30 21:35 21.00100 69.04748 36774 ft 485 kts 115°
2026-04-30 21:35 20.97403 69.11371 36769 ft 486 kts 110°
2026-04-30 21:36 20.95294 69.18242 36778 ft 487 kts 109°
2026-04-30 21:37 20.91142 69.31990 36778 ft 487 kts 109°
2026-04-30 21:37 20.89055 69.38892 36784 ft 487 kts 109°
2026-04-30 21:38 20.86967 69.45786 36784 ft 487 kts 109°
2026-04-30 21:38 20.84886 69.52644 36783 ft 487 kts 109°
2026-04-30 21:39 20.82792 69.59536 36784 ft 487 kts 109°
2026-04-30 21:39 20.80688 69.66448 36782 ft 487 kts 109°
2026-04-30 21:40 20.78601 69.73293 36784 ft 487 kts 109°
2026-04-30 21:40 20.76497 69.80183 36780 ft 487 kts 109°
2026-04-30 21:41 20.74403 69.87030 36782 ft 487 kts 109°
2026-04-30 21:41 20.72295 69.93911 36785 ft 487 kts 109°
2026-04-30 21:42 20.70184 70.00795 36785 ft 487 kts 109°
2026-04-30 21:42 20.68073 70.07663 36785 ft 487 kts 109°
2026-04-30 21:43 20.65969 70.14502 36784 ft 486 kts 109°
2026-04-30 21:43 20.63850 70.21376 36788 ft 486 kts 109°
2026-04-30 21:44 20.61743 70.28200 36790 ft 486 kts 109°
2026-04-30 21:44 20.59622 70.35061 36790 ft 486 kts 109°
2026-04-30 21:45 20.57496 70.41926 36787 ft 486 kts 109°
2026-04-30 21:45 20.55380 70.48750 36787 ft 486 kts 109°
2026-04-30 21:46 20.53248 70.55611 36787 ft 486 kts 109°
2026-04-30 21:46 20.51126 70.62433 36787 ft 486 kts 109°
2026-04-30 21:47 20.48992 70.69284 36787 ft 486 kts 109°
2026-04-30 21:47 20.46855 70.76130 36787 ft 486 kts 109°
2026-04-30 21:48 20.44721 70.82959 36784 ft 487 kts 109°
2026-04-30 21:48 20.42577 70.89806 36787 ft 486 kts 109°
2026-04-30 21:49 20.40428 70.96662 36787 ft 487 kts 109°
2026-04-30 21:49 20.38276 71.03518 36788 ft 487 kts 109°
2026-04-30 21:50 20.36134 71.10328 36788 ft 487 kts 109°
2026-04-30 21:50 20.33974 71.17186 36792 ft 487 kts 109°
2026-04-30 21:51 20.31818 71.24024 36790 ft 487 kts 109°
2026-04-30 21:51 20.29654 71.30874 36789 ft 487 kts 109°
2026-04-30 21:52 20.27492 71.37710 36786 ft 487 kts 109°
2026-04-30 21:52 20.26426 71.41077 36293 ft 483 kts 109°
2026-04-30 21:52 20.25348 71.44482 35462 ft 487 kts 109°
2026-04-30 21:53 20.24257 71.47923 34674 ft 490 kts 109°
2026-04-30 21:53 20.23161 71.51375 33936 ft 492 kts 109°
2026-04-30 21:53 20.22012 71.54819 33067 ft 495 kts 115°
2026-04-30 21:53 20.20243 71.57964 32142 ft 496 kts 130°
2026-04-30 21:54 20.18010 71.60684 31641 ft 490 kts 132°
2026-04-30 21:54 20.15759 71.63369 31256 ft 482 kts 133°
2026-04-30 21:54 20.13513 71.66001 30734 ft 478 kts 133°
2026-04-30 21:54 20.11254 71.68620 30114 ft 478 kts 133°
2026-04-30 21:55 20.08999 71.71222 29447 ft 477 kts 133°
2026-04-30 21:55 20.06780 71.73777 28830 ft 474 kts 133°
2026-04-30 21:55 20.04547 71.76345 28294 ft 470 kts 133°
2026-04-30 21:55 20.02336 71.78887 27749 ft 466 kts 132°
2026-04-30 21:56 20.00139 71.81411 27201 ft 463 kts 132°
2026-04-30 21:56 19.97958 71.83917 26659 ft 460 kts 132°
2026-04-30 21:56 19.95786 71.86411 26108 ft 457 kts 132°
2026-04-30 21:56 19.93643 71.88869 25587 ft 455 kts 131°
2026-04-30 21:57 19.91495 71.91334 25050 ft 453 kts 131°
2026-04-30 21:57 19.89358 71.93784 24525 ft 451 kts 131°
2026-04-30 21:57 19.87222 71.96232 24008 ft 449 kts 131°
2026-04-30 21:57 19.85122 71.98637 23486 ft 447 kts 131°
2026-04-30 21:58 19.83015 72.01050 22893 ft 445 kts 131°
2026-04-30 21:58 19.80913 72.03455 22358 ft 442 kts 131°
2026-04-30 21:58 19.78828 72.05841 21862 ft 438 kts 131°
2026-04-30 21:58 19.76707 72.08140 21309 ft 436 kts 137°
2026-04-30 21:59 19.74421 72.10249 20816 ft 433 kts 137°
2026-04-30 21:59 19.72171 72.12358 20377 ft 429 kts 137°
2026-04-30 21:59 19.70163 72.14258 19972 ft 426 kts 137°
2026-04-30 22:00 19.65780 72.18429 19068 ft 421 kts 137°
2026-04-30 22:00 19.61438 72.22564 18186 ft 417 kts 138°
2026-04-30 22:00 19.59282 72.24617 17706 ft 415 kts 138°
2026-04-30 22:01 19.57144 72.26652 17252 ft 411 kts 138°
2026-04-30 22:01 19.55047 72.28647 16835 ft 408 kts 138°
2026-04-30 22:01 19.52945 72.30647 16400 ft 405 kts 138°
2026-04-30 22:01 19.50845 72.32643 15990 ft 402 kts 138°
2026-04-30 22:02 19.48775 72.34610 15588 ft 399 kts 138°
2026-04-30 22:02 19.46708 72.36574 15164 ft 396 kts 138°
2026-04-30 22:02 19.44687 72.38493 14765 ft 393 kts 138°
2026-04-30 22:02 19.42653 72.40424 14359 ft 391 kts 138°
2026-04-30 22:03 19.40623 72.42350 13948 ft 389 kts 138°
2026-04-30 22:03 19.38617 72.44254 13530 ft 387 kts 139°
2026-04-30 22:03 19.36617 72.46151 13080 ft 385 kts 139°
2026-04-30 22:03 19.34637 72.48027 12821 ft 377 kts 139°
2026-04-30 22:04 19.32838 72.49732 12681 ft 367 kts 139°
2026-04-30 22:04 19.30965 72.51507 12525 ft 357 kts 139°
2026-04-30 22:04 19.27350 72.54930 12223 ft 339 kts 138°
2026-04-30 22:05 19.25612 72.56576 12069 ft 330 kts 139°
2026-04-30 22:05 19.23944 72.58154 11923 ft 322 kts 138°
2026-04-30 22:05 19.22424 72.59838 11812 ft 311 kts 121°
2026-04-30 22:05 19.21682 72.61911 11752 ft 295 kts 95°
2026-04-30 22:06 19.21615 72.64072 11740 ft 295 kts 88°
2026-04-30 22:06 19.21556 72.68441 11661 ft 296 kts 88°
2026-04-30 22:06 19.21536 72.70592 11620 ft 296 kts 88°
2026-04-30 22:07 19.21520 72.72777 11581 ft 296 kts 88°
2026-04-30 22:07 19.21505 72.74956 11537 ft 296 kts 88°
2026-04-30 22:07 19.21491 72.77137 11500 ft 296 kts 88°
2026-04-30 22:07 19.21481 72.78580 11477 ft 296 kts 88°
2026-04-30 22:08 19.21463 72.81476 11422 ft 295 kts 88°
2026-04-30 22:08 19.21453 72.82943 11398 ft 295 kts 88°
2026-04-30 22:08 19.21433 72.85820 11346 ft 295 kts 88°
2026-04-30 22:08 19.21424 72.87263 11319 ft 295 kts 88°
2026-04-30 22:09 19.21404 72.90165 11266 ft 295 kts 88°
2026-04-30 22:09 19.21389 72.92331 11225 ft 294 kts 88°
2026-04-30 22:09 19.21378 72.93766 11196 ft 293 kts 88°
2026-04-30 22:09 19.21363 72.95928 11161 ft 294 kts 88°
2026-04-30 22:10 19.21347 72.98091 11124 ft 294 kts 88°
2026-04-30 22:10 19.21331 73.00255 11088 ft 294 kts 88°
2026-04-30 22:10 19.21314 73.02397 11051 ft 294 kts 88°
2026-04-30 22:10 19.21298 73.04565 11000 ft 294 kts 88°
2026-04-30 22:11 19.21264 73.08881 10845 ft 293 kts 88°
2026-04-30 22:11 19.21246 73.11040 10833 ft 293 kts 88°
2026-04-30 22:11 19.21229 73.13195 10844 ft 293 kts 88°
2026-04-30 22:12 19.21235 73.15347 10732 ft 291 kts 87°
2026-04-30 22:12 19.21261 73.17489 10551 ft 291 kts 87°
2026-04-30 22:12 19.21283 73.19607 10377 ft 291 kts 87°
2026-04-30 22:12 19.21305 73.21750 10190 ft 290 kts 87°
2026-04-30 22:13 19.21325 73.23882 10003 ft 289 kts 87°
2026-04-30 22:13 19.21345 73.26012 9803 ft 289 kts 87°
2026-04-30 22:13 19.21364 73.28135 9591 ft 288 kts 87°
2026-04-30 22:13 19.21383 73.30252 9384 ft 288 kts 87°
2026-04-30 22:14 19.21402 73.32375 9182 ft 287 kts 87°
2026-04-30 22:14 19.21374 73.34486 8978 ft 288 kts 96°
2026-04-30 22:14 19.20720 73.36452 8756 ft 290 kts 123°
2026-04-30 22:14 19.19307 73.37968 8510 ft 293 kts 150°
2026-04-30 22:15 19.17421 73.38718 8255 ft 291 kts 174°
2026-04-30 22:15 19.15404 73.38847 7986 ft 290 kts 186°
2026-04-30 22:15 19.13382 73.38714 7701 ft 290 kts 188°
2026-04-30 22:15 19.11377 73.38535 7458 ft 287 kts 192°
2026-04-30 22:16 19.09427 73.38131 7288 ft 283 kts 197°
2026-04-30 22:16 19.07554 73.37557 7202 ft 279 kts 207°
2026-04-30 22:17 19.04834 73.33084 6975 ft 257 kts 269°
2026-04-30 22:17 19.04812 73.31199 6847 ft 254 kts 279°
2026-04-30 22:17 19.05693 73.27637 6634 ft 241 kts 289°
2026-04-30 22:18 19.06170 73.26000 6541 ft 225 kts 286°
2026-04-30 22:18 19.06904 73.23044 6338 ft 193 kts 287°
2026-04-30 22:19 19.07554 73.20336 5982 ft 189 kts 286°
2026-04-30 22:19 19.07896 73.18999 5736 ft 188 kts 287°
2026-04-30 22:19 19.08533 73.16400 5204 ft 176 kts 284°
2026-04-30 22:20 19.08808 73.15148 4954 ft 173 kts 285°
2026-04-30 22:20 19.09155 73.12642 4478 ft 172 kts 275°
2026-04-30 22:20 19.09200 73.11372 4252 ft 173 kts 272°
2026-04-30 22:21 19.09207 73.10107 4036 ft 170 kts 271°
2026-04-30 22:21 19.09196 73.08869 3805 ft 167 kts 270°
2026-04-30 22:21 19.09180 73.07645 3588 ft 167 kts 269°
2026-04-30 22:21 19.09163 73.06418 3382 ft 167 kts 268°
2026-04-30 22:22 19.09146 73.05208 3162 ft 168 kts 269°
2026-04-30 22:22 19.09131 73.03968 2972 ft 169 kts 268°
2026-04-30 22:22 19.09112 73.02737 2751 ft 166 kts 268°
2026-04-30 22:22 19.09092 73.01514 2538 ft 164 kts 268°
2026-04-30 22:23 19.09074 73.00328 2326 ft 159 kts 267°
2026-04-30 22:23 19.09058 72.99169 2103 ft 158 kts 267°
2026-04-30 22:23 19.09041 72.98008 1908 ft 157 kts 267°
2026-04-30 22:23 19.09024 72.96855 1708 ft 157 kts 266°
2026-04-30 22:24 19.09006 72.95730 1528 ft 150 kts 267°
2026-04-30 22:24 19.08991 72.94654 1307 ft 147 kts 266°
2026-04-30 22:24 19.08974 72.93572 1139 ft 147 kts 267°
2026-04-30 22:24 19.08959 72.92491 935 ft 147 kts 266°
2026-04-30 22:25 19.08933 72.91412 715 ft 147 kts 267°
2026-04-30 22:25 19.08914 72.90332 577 ft 147 kts 269°
2026-04-30 22:25 19.08900 72.89250 379 ft 146 kts 268°
2026-04-30 22:25 19.08890 72.88186 196 ft 144 kts 268°
2026-04-30 22:26 19.08853 72.86770 29 ft 119 kts 266°
2026-04-30 22:26 19.08861 72.85947 26 ft 92 kts 268°
2026-04-30 22:26 19.08913 72.85570 27 ft 24 kts 296°
2026-04-30 22:27 19.08966 72.85444 28 ft 15 kts 293°
2026-04-30 22:27 19.09039 72.85407 28 ft 13 kts 44°
2026-04-30 22:27 19.09024 72.85573 27 ft 13 kts 89°
2026-04-30 22:28 19.09028 72.85805 27 ft 18 kts 89°
2026-04-30 22:28 19.09030 72.85949 27 ft 21 kts 89°
2026-04-30 22:29 19.09038 72.86489 27 ft 28 kts 90°
2026-04-30 22:29 19.09039 72.86699 28 ft 30 kts 89°
2026-04-30 22:30 19.09157 72.87266 28 ft 14 kts
2026-04-30 22:31 19.09231 72.87078 28 ft 15 kts 269°
2026-04-30 22:32 19.09243 72.87031 28 ft 0 kts 44°
2026-04-30 22:32 19.09290 72.87075 28 ft 5 kts 31°
2026-04-30 22:33 19.09318 72.87094 28 ft 0 kts 32°